GW3691 Weather Reports


Display with metric or nautical units.
time (UTC)temp
F
wind
direction
speed
MPH
gust
MPH
rain 1hr
in
rain 24hr
in
rain mn
in
humidity
%
barometer
mb
20260904021937 79 143 0.0 0.0 0.00 0.00 0.00 90 1018.6
20260904021432 80 127 1.0 1.0 0.00 0.00 0.00 90 1018.8
20260904020927 80 142 0.0 0.0 0.00 0.00 0.00 90 1018.6
20260904020422 80 142 0.0 0.0 0.00 0.00 0.00 90 1018.7
20260904015920 80 143 0.0 0.0 0.00 0.00 0.00 90 1018.4
20260904015417 80 146 0.0 0.0 0.00 0.00 0.00 89 1018.7
20260904014915 80 146 0.0 0.0 0.00 0.00 0.00 89 1018.6
20260904014410 80 148 0.0 0.0 0.00 0.00 0.00 89 1018.4
20260904013906 80 149 0.0 0.0 0.00 0.00 0.00 89 1018.5
20260904013402 80 143 0.0 0.0 0.00 0.00 0.00 89 1018.8
20260904012857 80 142 0.0 0.0 0.00 0.00 0.00 89 1018.5
20260904012352 80 145 0.0 0.0 0.00 0.00 0.00 88 1018.8
20260904011851 80 144 0.0 0.0 0.00 0.00 0.00 88 1018.5
20260904011346 80 141 0.0 0.0 0.00 0.00 0.00 89 1018.7
20260904010841 80 154 0.0 0.0 0.00 0.00 0.00 89 1018.6
20260904010338 80 148 0.0 0.0 0.00 0.00 0.00 89 1018.4
20260904005832 80 145 0.0 0.0 0.00 0.00 0.00 89 1018.4
20260904005328 80 114 0.0 0.0 0.00 0.00 0.00 90 1018.5
20260904004829 80 145 0.0 0.0 0.00 0.00 0.00 89 1018.5
20260904004326 80 150 0.0 0.0 0.00 0.00 0.00 89 1018.4
20260904003820 80 130 0.0 0.0 0.00 0.00 0.00 89 1018.5
20260904003316 80 142 0.0 0.0 0.00 0.00 0.00 89 1018.2
20260904002811 80 134 0.0 0.0 0.00 0.00 0.00 89 1018.5
20260904002307 80 155 0.0 0.0 0.00 0.00 0.00 89 1018.4
20260904001807 80 145 0.0 0.0 0.00 0.00 0.00 89 1018.5
20260904001302 80 156 0.0 0.0 0.00 0.00 0.00 89 1018.3
20260904000757 80 141 0.0 0.0 0.00 0.00 0.00 89 1018.2
20260904000251 80 134 0.0 0.0 0.00 0.00 0.00 89 1018.5
20260903235750 81 148 0.0 0.0 0.00 0.00 0.00 88 1018.2
20260903235247 81 153 0.0 0.0 0.00 0.00 0.00 88 1018.2
20260903234746 81 137 0.0 0.0 0.00 0.00 0.00 88 1018.2
20260903234243 81 148 0.0 0.0 0.00 0.00 0.00 88 1018.3
20260903233738 81 147 0.0 0.0 0.00 0.00 0.00 87 1018.2
20260903233234 81 150 0.0 0.0 0.00 0.00 0.00 87 1018.0
20260903232732 82 145 2.0 2.0 0.00 0.00 0.00 87 1018.1
20260903232229 82 152 0.0 0.0 0.00 0.00 0.00 86 1017.9
20260903231728 82 113 0.0 1.0 0.00 0.00 0.00 86 1017.8
20260903231223 82 156 1.0 1.0 0.00 0.00 0.00 85 1017.9
20260903230719 82 107 1.0 2.0 0.00 0.00 0.00 84 1017.9
20260903230214 83 147 0.0 1.0 0.00 0.00 0.00 84 1017.6
20260903225711 83 135 1.0 1.0 0.00 0.00 0.00 83 1017.8
20260903225207 84 108 3.0 3.0 0.00 0.00 0.00 82 1017.7
20260903224703 84 150 0.0 0.0 0.00 0.00 0.00 82 1017.7
20260903224158 84 131 1.0 2.0 0.00 0.00 0.00 81 1017.8
20260903223653 84 79 1.0 2.0 0.00 0.00 0.00 81 1018.1
20260903223152 85 125 0.0 0.0 0.00 0.00 0.00 80 1017.8
20260903222651 85 145 0.0 0.0 0.00 0.00 0.00 80 1017.7
20260903222150 84 152 0.0 1.0 0.00 0.00 0.00 81 1017.7
20260903221646 84 118 1.0 1.0 0.00 0.00 0.00 81 1017.8
20260903221144 84 162 0.0 1.0 0.00 0.00 0.00 80 1017.6
20260903220643 85 129 1.0 1.0 0.00 0.00 0.00 80 1017.6
20260903220138 85 145 0.0 1.0 0.00 0.00 0.00 80 1017.5
20260903215637 87 154 0.0 0.0 0.00 0.00 0.00 78 1017.1
20260903215132 87 78 2.0 3.0 0.00 0.00 0.00 77 1017.0
20260903214630 87 115 3.0 5.0 0.00 0.00 0.00 77 1017.0
20260903214126 87 135 4.0 6.0 0.00 0.00 0.00 77 1016.8
20260903213621 89 114 3.0 5.0 0.00 0.00 0.00 76 1016.9
20260903213117 89 155 1.0 1.0 0.00 0.00 0.00 74 1016.9
20260903212613 90 162 2.0 2.0 0.00 0.00 0.00 74 1016.7
20260903212108 90 138 1.0 1.0 0.00 0.00 0.00 75 1016.8
20260903211603 89 164 1.0 1.0 0.00 0.00 0.00 74 1016.7
20260903211100 88 171 1.0 1.0 0.00 0.00 0.00 76 1017.0
20260903210554 88 132 2.0 2.0 0.00 0.00 0.00 76 1016.9
20260903210050 88 141 0.0 1.0 0.00 0.00 0.00 75 1017.0
20260903205549 87 140 0.0 0.0 0.00 0.00 0.00 77 1017.2
20260903205043 88 83 3.0 6.0 0.00 0.00 0.00 76 1017.1
20260903204540 88 149 0.0 0.0 0.00 0.00 0.00 76 1017.0
20260903204035 88 90 3.0 3.0 0.00 0.00 0.00 75 1017.1
20260903203531 91 56 1.0 1.0 0.00 0.00 0.00 74 1017.2
20260903203030 90 147 0.0 0.0 0.00 0.00 0.00 73 1017.2
20260903202526 91 156 0.0 1.0 0.00 0.00 0.00 71 1017.6
20260903202021 90 148 0.0 0.0 0.00 0.00 0.00 71 1017.3
20260903201516 89 133 1.0 1.0 0.00 0.00 0.00 73 1017.4
20260903201015 89 81 2.0 2.0 0.00 0.00 0.00 73 1017.6
20260903200510 89 91 3.0 3.0 0.00 0.00 0.00 74 1017.5
20260903200005 88 137 1.0 2.0 0.00 0.00 0.00 74 1017.6
20260903195501 88 57 4.0 9.0 0.00 0.00 0.00 74 1017.8
20260903194956 88 186 3.0 3.0 0.00 0.00 0.00 76 1017.8
20260903194451 88 128 3.0 3.0 0.00 0.00 0.00 75 1017.9
20260903193946 89 125 1.0 2.0 0.00 0.00 0.00 74 1017.9
20260903193443 88 37 3.0 5.0 0.00 0.00 0.00 76 1018.1
20260903192937 88 113 2.0 3.0 0.00 0.00 0.00 76 1018.0
20260903192435 89 91 3.0 3.0 0.00 0.00 0.00 75 1018.2
20260903191930 89 141 2.0 2.0 0.00 0.00 0.00 74 1018.1
20260903191426 90 99 1.0 2.0 0.00 0.00 0.00 75 1018.1
20260903190925 89 137 0.0 0.0 0.00 0.00 0.00 75 1017.9
20260903190425 89 109 2.0 3.0 0.00 0.00 0.00 75 1018.1
20260903185919 91 154 0.0 1.0 0.00 0.00 0.00 74 1018.1
20260903185415 89 122 0.0 1.0 0.00 0.00 0.00 75 1018.1
20260903184910 89 101 2.0 3.0 0.00 0.00 0.00 75 1018.3
20260903184407 88 117 2.0 2.0 0.00 0.00 0.00 75 1018.2
20260903183907 88 178 0.0 0.0 0.00 0.00 0.00 75 1018.4
20260903183401 90 127 1.0 1.0 0.00 0.00 0.00 75 1018.2
20260903182901 90 123 1.0 2.0 0.00 0.00 0.00 74 1018.6
20260903182359 90 139 0.0 0.0 0.00 0.00 0.00 75 1018.5
20260903181854 89 142 2.0 2.0 0.00 0.00 0.00 77 1018.5
20260903181349 89 149 1.0 1.0 0.00 0.00 0.00 77 1018.7
20260903180843 88 66 3.0 3.0 0.00 0.00 0.00 78 1018.9
20260903180337 87 133 1.0 1.0 0.00 0.00 0.00 79 1019.0
20260903175831 86 137 1.0 1.0 0.00 0.00 0.00 81 1018.9
20260903175331 85 150 0.0 1.0 0.00 0.00 0.00 84 1018.8
20260903174825 85 148 1.0 2.0 0.00 0.00 0.00 83 1018.8
20260903174321 85 118 2.0 3.0 0.00 0.00 0.00 84 1018.9
20260903173814 86 84 3.0 3.0 0.00 0.00 0.00 83 1019.0
20260903173310 86 154 0.0 1.0 0.00 0.00 0.00 80 1018.9
20260903172806 86 132 0.0 0.0 0.00 0.00 0.00 81 1019.2
20260903172301 86 146 0.0 0.0 0.00 0.00 0.00 81 1019.2
20260903171756 86 105 2.0 2.0 0.00 0.00 0.00 80 1019.0
20260903171252 86 115 1.0 1.0 0.00 0.00 0.00 80 1019.1
20260903170750 87 150 1.0 1.0 0.00 0.00 0.00 79 1019.0
20260903170246 87 145 0.0 1.0 0.00 0.00 0.00 79 1019.1
20260903165744 86 152 0.0 1.0 0.00 0.00 0.00 79 1019.2
20260903165239 86 148 0.0 0.0 0.00 0.00 0.00 80 1019.5
20260903164739 88 127 0.0 1.0 0.00 0.00 0.00 77 1019.6
20260903164235 87 125 1.0 2.0 0.00 0.00 0.00 78 1019.7
20260903163734 88 154 0.0 0.0 0.00 0.00 0.00 77 1019.3
20260903163231 89 147 1.0 1.0 0.00 0.00 0.00 78 1019.5
20260903162726 88 139 1.0 1.0 0.00 0.00 0.00 76 1019.5
20260903162222 88 88 1.0 1.0 0.00 0.00 0.00 77 1019.4
20260903161718 88 114 1.0 2.0 0.00 0.00 0.00 77 1019.6
20260903161213 88 126 3.0 7.0 0.00 0.00 0.00 76 1019.5
20260903160709 89 129 1.0 1.0 0.00 0.00 0.00 76 1019.5
20260903160202 88 158 1.0 2.0 0.00 0.00 0.00 76 1019.8
20260903155701 87 348 3.0 3.0 0.00 0.00 0.00 77 1019.9
20260903155202 87 106 2.0 2.0 0.00 0.00 0.00 77 1019.6
20260903154657 87 152 0.0 0.0 0.00 0.00 0.00 79 1019.6
20260903154153 87 157 2.0 2.0 0.00 0.00 0.00 77 1019.6
20260903153649 88 84 2.0 2.0 0.00 0.00 0.00 77 1019.5
20260903153145 88 74 2.0 2.0 0.00 0.00 0.00 76 1019.3
20260903152641 88 87 3.0 5.0 0.00 0.00 0.00 75 1019.6
20260903152136 88 129 3.0 3.0 0.00 0.00 0.00 78 1019.8
20260903151636 87 101 0.0 1.0 0.00 0.00 0.00 77 1019.7
20260903151126 87 174 1.0 2.0 0.00 0.00 0.00 76 1019.8
20260903150626 87 121 1.0 1.0 0.00 0.00 0.00 77 1019.8
20260903150120 86 182 2.0 3.0 0.00 0.00 0.00 79 1019.5
20260903145620 86 164 2.0 2.0 0.00 0.00 0.00 79 1019.7
20260903145115 86 96 1.0 2.0 0.00 0.00 0.00 80 1019.5
20260903144614 85 140 0.0 0.0 0.00 0.00 0.00 82 1019.4
20260903144110 86 115 2.0 3.0 0.00 0.00 0.00 83 1019.5
20260903143606 85 104 1.0 2.0 0.00 0.00 0.00 85 1019.4
20260903143103 84 132 0.0 1.0 0.00 0.00 0.00 87 1019.5
20260903142602 84 109 1.0 2.0 0.00 0.00 0.00 87 1019.3
20260903142059 84 118 1.0 1.0 0.00 0.00 0.00 86 1019.4
20260903141554 84 130 0.0 0.0 0.00 0.00 0.00 86 1019.7
20260903141050 84 95 3.0 3.0 0.00 0.00 0.00 82 1019.6
20260903140545 85 136 0.0 1.0 0.00 0.00 0.00 81 1019.8
20260903140040 84 120 2.0 2.0 0.00 0.00 0.00 80 1019.8
20260903135536 86 115 1.0 1.0 0.00 0.00 0.00 80 1019.6
20260903135030 87 75 1.0 2.0 0.00 0.00 0.00 78 1019.4
20260903134530 87 123 0.0 0.0 0.00 0.00 0.00 80 1019.5
20260903134026 85 163 2.0 3.0 0.00 0.00 0.00 81 1019.4
20260903133523 85 126 0.0 1.0 0.00 0.00 0.00 82 1019.5
20260903133019 86 125 0.0 0.0 0.00 0.00 0.00 83 1019.3
20260903132514 87 164 0.0 1.0 0.00 0.00 0.00 80 1019.5
20260903132009 86 137 0.0 0.0 0.00 0.00 0.00 81 1019.4
20260903131504 87 135 0.0 1.0 0.00 0.00 0.00 80 1019.4
20260903131002 87 144 0.0 0.0 0.00 0.00 0.00 81 1019.3
20260903130458 86 145 0.0 0.0 0.00 0.00 0.00 83 1019.4
20260903125956 85 133 0.0 0.0 0.00 0.00 0.00 85 1019.2
20260903125450 84 142 0.0 0.0 0.00 0.00 0.00 89 1019.3
20260903124945 83 140 0.0 0.0 0.00 0.00 0.00 92 1019.3
20260903124440 82 147 0.0 0.0 0.00 0.00 0.00 94 1019.1
20260903123939 81 145 0.0 0.0 0.00 0.00 0.00 95 1019.2
20260903123434 80 148 0.0 0.0 0.00 0.00 0.00 95 1019.2
20260903122932 79 142 0.0 0.0 0.00 0.00 0.00 96 1019.3
20260903122427 79 143 0.0 0.0 0.00 0.00 0.00 96 1019.1
20260903121926 79 143 0.0 0.0 0.00 0.00 0.00 96 1019.2
20260903121421 79 143 0.0 0.0 0.00 0.00 0.00 96 1019.3
20260903120918 78 143 0.0 0.0 0.00 0.00 0.00 96 1019.3
20260903120416 78 143 0.0 0.0 0.00 0.00 0.00 96 1019.2
20260903115914 78 143 0.0 0.0 0.00 0.00 0.00 96 1019.1
20260903115409 78 143 0.0 0.0 0.00 0.00 0.00 96 1019.3
20260903114903 78 143 0.0 0.0 0.00 0.00 0.00 96 1019.2
20260903114359 77 143 0.0 0.0 0.00 0.00 0.00 96 1018.9
20260903113855 77 143 0.0 0.0 0.00 0.00 0.00 96 1018.8
20260903113350 77 143 0.0 0.0 0.00 0.00 0.00 96 1018.7
20260903112846 77 143 0.0 0.0 0.00 0.00 0.00 96 1018.7
20260903112342 77 143 0.0 0.0 0.00 0.00 0.00 96 1018.8
20260903111840 77 143 0.0 0.0 0.00 0.00 0.00 96 1018.6
20260903111335 77 143 0.0 0.0 0.00 0.00 0.00 96 1018.5
20260903110831 77 143 0.0 0.0 0.00 0.00 0.00 96 1018.4
20260903110326 77 143 0.0 0.0 0.00 0.00 0.00 96 1018.5
20260903105826 77 143 0.0 0.0 0.00 0.00 0.00 96 1018.4
20260903105326 77 143 0.0 0.0 0.00 0.00 0.00 95 1018.3
20260903104821 77 143 0.0 0.0 0.00 0.00 0.00 96 1018.2
20260903104316 77 143 0.0 0.0 0.00 0.00 0.00 95 1018.0
20260903103813 77 143 0.0 0.0 0.00 0.00 0.00 95 1017.9
20260903103308 77 143 0.0 0.0 0.00 0.00 0.00 95 1018.1
20260903102804 77 143 0.0 0.0 0.00 0.00 0.00 96 1017.8
20260903102258 77 143 0.0 0.0 0.00 0.00 0.00 96 1017.8
20260903101756 77 143 0.0 0.0 0.00 0.00 0.00 96 1017.8
20260903101252 77 143 0.0 0.0 0.00 0.00 0.00 95 1017.7
20260903100748 77 143 0.0 0.0 0.00 0.00 0.00 96 1017.6
20260903100242 77 143 0.0 0.0 0.00 0.00 0.00 95 1017.5
20260903095739 77 143 0.0 0.0 0.00 0.00 0.00 95 1017.6
20260903095234 77 143 0.0 0.0 0.00 0.00 0.00 95 1017.7
20260903094729 77 143 0.0 0.0 0.00 0.00 0.00 95 1017.6
20260903094224 77 143 0.0 0.0 0.00 0.00 0.00 95 1017.6
20260903093720 77 143 0.0 0.0 0.00 0.00 0.00 95 1017.5
20260903093215 77 143 0.0 0.0 0.00 0.00 0.00 95 1017.6
20260903092714 77 143 0.0 0.0 0.00 0.00 0.00 95 1017.3
20260903092209 77 143 0.0 0.0 0.00 0.00 0.00 95 1017.5
20260903091708 77 143 0.0 0.0 0.00 0.00 0.00 95 1017.6
20260903091203 77 143 0.0 0.0 0.00 0.00 0.00 95 1017.6
20260903090658 77 143 0.0 0.0 0.00 0.00 0.00 95 1017.8
20260903090156 77 143 0.0 0.0 0.00 0.00 0.00 95 1017.6
20260903085655 77 143 0.0 0.0 0.00 0.00 0.00 95 1017.7
20260903085151 77 143 0.0 0.0 0.00 0.00 0.00 95 1017.5
20260903084649 77 143 0.0 0.0 0.00 0.00 0.00 95 1017.4
20260903084143 77 143 0.0 0.0 0.00 0.00 0.00 95 1017.5
20260903083639 77 143 0.0 0.0 0.00 0.00 0.00 95 1017.6
20260903083133 78 143 0.0 0.0 0.00 0.00 0.00 95 1017.5
20260903082628 78 143 0.0 0.0 0.00 0.00 0.00 95 1017.6
20260903082124 77 143 0.0 0.0 0.00 0.00 0.00 95 1017.4
20260903081618 77 143 0.0 0.0 0.00 0.00 0.00 95 1017.5
20260903081114 78 143 0.0 0.0 0.00 0.00 0.00 95 1017.4
20260903080610 78 143 0.0 0.0 0.00 0.00 0.00 95 1017.4
20260903080108 78 143 0.0 0.0 0.00 0.00 0.00 95 1017.5
20260903075607 78 143 0.0 0.0 0.00 0.00 0.00 95 1017.7
20260903075102 78 143 0.0 0.0 0.00 0.00 0.00 95 1017.5
20260903074601 78 143 0.0 0.0 0.00 0.00 0.00 95 1017.6
20260903074056 78 143 0.0 0.0 0.00 0.00 0.00 95 1017.6
20260903073552 78 143 0.0 0.0 0.00 0.00 0.00 95 1017.6
20260903073048 78 143 0.0 0.0 0.00 0.00 0.00 95 1017.8
20260903072543 78 143 0.0 0.0 0.00 0.00 0.00 95 1017.9
20260903072039 78 143 0.0 0.0 0.00 0.00 0.00 95 1018.0
20260903071536 78 143 0.0 0.0 0.00 0.00 0.00 95 1018.0
20260903071031 78 143 0.0 0.0 0.00 0.00 0.00 95 1018.0
20260903070530 78 143 0.0 0.0 0.00 0.00 0.00 95 1018.1
20260903070026 78 143 0.0 0.0 0.00 0.00 0.00 95 1018.2
20260903065519 78 143 0.0 0.0 0.00 0.00 0.00 95 1018.1
20260903065014 78 143 0.0 0.0 0.00 0.00 0.00 95 1018.3
20260903064514 78 143 0.0 0.0 0.00 0.00 0.00 95 1018.3
20260903064009 78 143 0.0 0.0 0.00 0.00 0.00 95 1018.1
20260903063504 78 143 0.0 0.0 0.00 0.00 0.00 95 1018.3
20260903063000 78 143 0.0 0.0 0.00 0.00 0.00 95 1018.3
20260903062454 78 143 0.0 0.0 0.00 0.00 0.00 95 1018.4
20260903061949 78 143 0.0 0.0 0.00 0.00 0.00 94 1018.3
20260903061444 78 143 0.0 0.0 0.00 0.00 0.00 94 1018.7
20260903060939 78 143 0.0 0.0 0.00 0.00 0.00 94 1018.6
20260903060434 78 143 0.0 0.0 0.00 0.00 0.00 94 1018.5
20260903055933 78 143 0.0 0.0 0.00 0.00 0.00 94 1018.6
20260903055430 78 143 0.0 0.0 0.00 0.00 0.00 94 1018.7
20260903054925 78 143 0.0 0.0 0.00 0.00 0.00 94 1019.0
20260903054420 78 143 0.0 0.0 0.00 0.00 0.00 94 1018.8
20260903053916 78 143 0.0 0.0 0.00 0.00 0.00 94 1018.9
20260903053416 78 143 0.0 0.0 0.00 0.00 0.00 94 1018.7
20260903052912 79 143 0.0 0.0 0.00 0.00 0.00 94 1018.8
20260903052408 79 143 0.0 0.0 0.00 0.00 0.00 94 1018.9
20260903051903 79 143 0.0 0.0 0.00 0.00 0.00 94 1019.1
20260903051359 78 143 0.0 0.0 0.00 0.00 0.00 94 1019.0
20260903050854 78 143 0.0 0.0 0.00 0.00 0.00 94 1019.0
20260903050352 79 143 0.0 0.0 0.00 0.00 0.00 94 1018.9
20260903045847 79 143 0.0 0.0 0.00 0.00 0.00 94 1019.1
20260903045343 79 143 0.0 0.0 0.00 0.00 0.00 94 1019.2
20260903044840 79 143 0.0 0.0 0.00 0.00 0.00 93 1019.1
20260903044340 79 143 0.0 0.0 0.00 0.00 0.00 93 1019.2
20260903043836 79 143 0.0 0.0 0.00 0.00 0.00 93 1019.6
20260903043331 79 143 0.0 0.0 0.00 0.00 0.00 93 1019.4
20260903042830 79 143 0.0 0.0 0.00 0.00 0.00 93 1019.5
20260903042325 79 143 0.0 0.0 0.00 0.00 0.00 93 1019.2
20260903041822 79 143 0.0 0.0 0.00 0.00 0.00 93 1019.0
20260903041318 79 143 0.0 0.0 0.00 0.00 0.00 93 1019.4
20260903040813 79 143 0.0 0.0 0.00 0.00 0.00 93 1019.2
20260903040312 79 144 0.0 0.0 0.00 0.00 0.00 93 1019.4
20260903035808 79 144 0.0 0.0 0.00 0.03 0.03 93 1019.3
20260903035306 79 153 0.0 0.0 0.00 0.03 0.03 93 1019.3
20260903034759 79 160 0.0 0.0 0.00 0.03 0.03 93 1019.2
20260903034253 79 161 0.0 0.0 0.00 0.03 0.03 93 1019.4
20260903033749 79 160 0.0 0.0 0.00 0.03 0.03 93 1019.4
20260903033244 79 146 0.0 0.0 0.00 0.03 0.03 93 1019.6
20260903032738 79 145 0.0 0.0 0.00 0.03 0.03 92 1019.5
20260903032234 79 145 0.0 0.0 0.00 0.03 0.03 92 1019.4
20260903031729 80 145 0.0 0.0 0.00 0.03 0.03 92 1019.0
20260903031223 80 147 0.0 0.0 0.00 0.03 0.03 92 1019.4
20260903030719 80 148 0.0 0.0 0.00 0.03 0.03 92 1019.7
20260903030215 80 149 0.0 0.0 0.00 0.03 0.03 92 1019.6
20260903025710 80 148 0.0 0.0 0.00 0.03 0.03 91 1019.5
20260903025206 80 146 0.0 0.0 0.00 0.03 0.03 91 1019.5
20260903024706 80 148 0.0 0.0 0.00 0.03 0.03 91 1019.3
20260903024205 80 150 0.0 0.0 0.00 0.03 0.03 91 1019.5
20260903023701 80 136 0.0 0.0 0.00 0.03 0.03 91 1019.6
20260903023156 80 150 0.0 0.0 0.00 0.03 0.03 91 1019.6
20260903022655 80 144 0.0 0.0 0.00 0.03 0.03 90 1019.5